ヘリン-ローマン-クロケット彗星

111P/Helin-Roman-Crockett (1996)

English version
Home page
Updated on March 26, 1999

---------------------------------------------------------------------

・ プロフィール

・ 軌道要素

   The following improved orbital elements by Kenji Muraoka, 
  are from 113 observations  1989 to 1998, perturbations by  
  9 Plantes, Moon and 5 minor planets were taken into account. 
   The mean residual is +/- 0.86 arc seconds.

      Epoch  =  1996 Nov. 13.0  TT       JDT = 2450400.5
          T  =  1996 Oct. 31.78429       +/- 0.00108 (m.e.) TT
       Peri. =   10.13264                +/- 0.00040
       Node  =   91.98905                +/- 0.00036   (2000.0)
       Incl. =    4.23107                +/- 0.00003
          q  =    3.4896106              +/- 0.0000012 AU
          e  =    0.1387105              +/- 0.0000003
          a  =    4.0516115              +/- 0.0000005 AU
          n  =    0.12085438             +/- 0.00000002
          P  =    8.155                  +/- 0.0000015  years

・ 星図

・ 1995年 8月 1日〜1998年 4月27日

・ 光度変化

        m1 = 7.0 + 5 logΔ + 20.0 log r

---------------------------------------------------------------------

軌道要素は村岡健治氏の計算によるものです。
星図は StellaNavigator Ver.2.0 for Windows (アストロアーツ 編著 / アスキー出版局刊) で作成したものです。
光度グラフはComet for Windowsで作成したものです。

---------------------------------------------------------------------

Copyright(C) Seiichi Yoshida (comet@aerith.net). All rights reserved.